,,PA_Meas_PMT16A,,PR_Meas_QMR101_102,,RH_Meas_QMH101,,SR_Meas_QMS101,,TA_Meas_QMH101,,GenWind,,GenWind,
time,status,PA,status,PR,status,RH,status,SR,status,TA,status,DirAvg,status,SpdAvg,
2010-02-13, 00:00:04,VALID,919.132,VALID,0,VALID,95.1479,VALID,0,VALID,20.6975,VALID,137,VALID,1.25312,
2010-02-13, 00:01:04,VALID,919.134,VALID,0,VALID,95.064,VALID,0.107441,VALID,20.7154,VALID,136,VALID,1.71367,
2010-02-13, 00:02:04,VALID,919.113,VALID,0,VALID,94.8658,VALID,0,VALID,20.7755,VALID,141,VALID,1.19727,
2010-02-13, 00:03:04,VALID,919.136,VALID,0,VALID,94.7514,VALID,0,VALID,20.795,VALID,141,VALID,0.958203,
2010-02-13, 00:04:04,VALID,919.121,VALID,0,VALID,94.6142,VALID,0,VALID,20.834,VALID,141,VALID,1.15273,
2010-02-13, 00:05:04,VALID,919.102,VALID,0,VALID,94.4389,VALID,0,VALID,20.8324,VALID,141,VALID,1.41484,
2010-02-13, 00:06:04,VALID,919.066,VALID,0,VALID,94.2483,VALID,0,VALID,20.8519,VALID,141,VALID,1.26875,
2010-02-13, 00:07:04,VALID,919.045,VALID,0,VALID,94.1949,VALID,0,VALID,20.873,VALID,141,VALID,0.928125,
2010-02-13, 00:08:04,VALID,919.013,VALID,0,VALID,94.0272,VALID,0,VALID,20.8714,VALID,141,VALID,0.860547,
2010-02-13, 00:09:04,VALID,919.029,VALID,0,VALID,93.8747,VALID,0,VALID,20.9331,VALID,141,VALID,1.19922,
2010-02-13, 00:10:04,VALID,918.982,VALID,0,VALID,93.5012,VALID,0,VALID,21.0096,VALID,104,VALID,1.22305,
2010-02-13, 00:11:04,VALID,918.977,VALID,0,VALID,93.1505,VALID,0,VALID,21.0665,VALID,93,VALID,1.08555,
2010-02-13, 00:12:04,VALID,918.94,VALID,0,VALID,92.838,VALID,0,VALID,21.1461,VALID,94,VALID,1.03789,
2010-02-13, 00:13:04,VALID,918.942,VALID,0,VALID,92.6474,VALID,0.107441,VALID,21.1657,VALID,94,VALID,0.978516,
2010-02-13, 00:14:04,VALID,918.922,VALID,0,VALID,92.5025,VALID,0,VALID,21.1852,VALID,94,VALID,1.26914,
2010-02-13, 00:15:04,VALID,918.916,VALID,0,VALID,92.2967,VALID,0,VALID,21.2437,VALID,94,VALID,1.58984,
2010-02-13, 00:16:04,VALID,918.938,VALID,0,VALID,92.2967,VALID,0,VALID,21.2632,VALID,94,VALID,1.14258,
2010-02-13, 00:17:04,VALID,918.926,VALID,0,VALID,91.946,VALID,0,VALID,21.2827,VALID,131,VALID,1.52852,
2010-02-13, 00:18:04,VALID,918.926,VALID,0,VALID,91.7707,VALID,0,VALID,21.3217,VALID,131,VALID,1.52852,
2010-02-13, 00:19:04,VALID,918.915,VALID,0,VALID,91.7707,VALID,0,VALID,21.3022,VALID,131,VALID,1.42266,
2010-02-13, 00:20:04,VALID,918.927,VALID,0,VALID,91.946,VALID,0,VALID,21.2421,VALID,131,VALID,1.34531,
2010-02-13, 00:21:04,VALID,918.891,VALID,0,VALID,92.0451,VALID,0,VALID,21.2437,VALID,131,VALID,1.38086,
2010-02-13, 00:22:04,VALID,918.91,VALID,0,VALID,92.0909,VALID,0,VALID,21.2242,VALID,131,VALID,1.35469,
2010-02-13, 00:23:04,VALID,918.857,VALID,0,VALID,92.129,VALID,0,VALID,21.2047,VALID,131,VALID,1.47695,
2010-02-13, 00:24:04,VALID,918.861,VALID,0,VALID,92.1214,VALID,0,VALID,21.2047,VALID,131,VALID,1.28672,
2010-02-13, 00:25:04,VALID,918.798,VALID,0,VALID,92.1137,VALID,0,VALID,21.2031,VALID,131,VALID,1.35234,
2010-02-13, 00:26:04,VALID,918.753,VALID,0,VALID,92.0223,VALID,0,VALID,21.2242,VALID,131,VALID,1.09531,
2010-02-13, 00:27:04,VALID,918.667,VALID,0,VALID,91.9613,VALID,0,VALID,21.2437,VALID,131,VALID,0.580859,
2010-02-13, 00:28:04,VALID,918.64,VALID,0,VALID,91.9918,VALID,0,VALID,21.2648,VALID,131,VALID,0.570703,
2010-02-13, 00:29:04,VALID,918.578,VALID,0,VALID,92.0832,VALID,0,VALID,21.2437,VALID,131,VALID,0.149219,
2010-02-13, 00:30:04,VALID,918.54,VALID,0,VALID,92.0146,VALID,0,VALID,21.2437,VALID,131,VALID,0.470313,
2010-02-13, 00:31:04,VALID,918.535,VALID,0,VALID,91.8698,VALID,0,VALID,21.2632,VALID,131,VALID,0.533203,
2010-02-13, 00:32:04,VALID,918.492,VALID,0,VALID,92.0604,VALID,0,VALID,21.2031,VALID,131,VALID,0.598437,
2010-02-13, 00:33:04,VALID,918.509,VALID,0,VALID,92.2814,VALID,0,VALID,21.164,VALID,131,VALID,0.531641,
2010-02-13, 00:34:04,VALID,918.499,VALID,0,VALID,92.4415,VALID,0,VALID,21.1461,VALID,131,VALID,0.514063,
2010-02-13, 00:35:04,VALID,918.472,VALID,0,VALID,92.5864,VALID,0,VALID,21.086,VALID,131,VALID,0.574609,
2010-02-13, 00:36:04,VALID,918.506,VALID,0,VALID,92.8913,VALID,0,VALID,21.0291,VALID,82,VALID,1.52266,
2010-02-13, 00:37:04,VALID,918.506,VALID,0,VALID,93.4783,VALID,0.107441,VALID,20.912,VALID,78,VALID,1.47266,
2010-02-13, 00:38:04,VALID,918.467,VALID,0,VALID,93.8595,VALID,0,VALID,20.795,VALID,78,VALID,0.754297,
2010-02-13, 00:39:04,VALID,918.459,VALID,0,VALID,94.2178,VALID,0,VALID,20.717,VALID,136,VALID,1.27383,
2010-02-13, 00:40:04,VALID,918.378,VALID,0,VALID,94.3703,VALID,0,VALID,20.6975,VALID,137,VALID,0.994922,
2010-02-13, 00:41:04,VALID,918.37,VALID,0,VALID,94.3017,VALID,0,VALID,20.717,VALID,137,VALID,0.266016,
2010-02-13, 00:42:04,VALID,918.34,VALID,0,VALID,94.1111,VALID,0,VALID,20.7365,VALID,137,VALID,0.580859,
2010-02-13, 00:43:04,VALID,918.332,VALID,0,VALID,94.0272,VALID,0,VALID,20.7154,VALID,137,VALID,0.695703,
2010-02-13, 00:44:04,VALID,918.287,VALID,0,VALID,93.9738,VALID,0,VALID,20.756,VALID,137,VALID,0.691406,
2010-02-13, 00:45:04,VALID,918.273,VALID,0,VALID,94.0272,VALID,0.107441,VALID,20.7349,VALID,137,VALID,0.605469,
2010-02-13, 00:46:04,VALID,918.279,VALID,0,VALID,94.2102,VALID,0,VALID,20.7755,VALID,137,VALID,0.649219,
2010-02-13, 00:47:04,VALID,918.243,VALID,0,VALID,94.3169,VALID,0,VALID,20.756,VALID,137,VALID,0.448828,
2010-02-13, 00:48:04,VALID,918.21,VALID,0,VALID,94.3474,VALID,0,VALID,20.7365,VALID,137,VALID,0.0121094,
2010-02-13, 00:49:04,VALID,918.213,VALID,0,VALID,94.416,VALID,0,VALID,20.6975,VALID,137,VALID,0.669141,
2010-02-13, 00:50:04,VALID,918.176,VALID,0,VALID,94.5456,VALID,0,VALID,20.678,VALID,137,VALID,0.3125,
2010-02-13, 00:51:04,VALID,918.18,VALID,0,VALID,94.5837,VALID,0,VALID,20.6585,VALID,137,VALID,0.313281,
2010-02-13, 00:52:04,VALID,918.163,VALID,0,VALID,94.6523,VALID,0,VALID,20.6194,VALID,137,VALID,0.290625,
2010-02-13, 00:53:04,VALID,918.155,VALID,0,VALID,94.6905,VALID,0,VALID,20.5804,VALID,137,VALID,0.115234,
2010-02-13, 00:54:04,VALID,918.127,VALID,0,VALID,94.7743,VALID,0,VALID,20.5399,VALID,137,VALID,0,
2010-02-13, 00:55:04,VALID,918.143,VALID,0,VALID,94.8658,VALID,0,VALID,20.5625,VALID,137,VALID,0,
2010-02-13, 00:56:04,VALID,918.111,VALID,0,VALID,94.9878,VALID,0,VALID,20.5414,VALID,137,VALID,0.530469,
2010-02-13, 00:57:04,VALID,918.087,VALID,0,VALID,94.9192,VALID,0,VALID,20.5414,VALID,137,VALID,0.523828,
2010-02-13, 00:58:04,VALID,918.06,VALID,0,VALID,94.7743,VALID,0,VALID,20.5204,VALID,137,VALID,0.987109,
2010-02-13, 00:59:04,VALID,918.07,VALID,0,VALID,94.5456,VALID,0,VALID,20.5414,VALID,137,VALID,0.6125,
2010-02-13, 01:00:04,VALID,918.042,VALID,0,VALID,94.3779,VALID,0,VALID,20.5204,VALID,142,VALID,1.23672,
2010-02-13, 01:01:04,VALID,918.024,VALID,0,VALID,94.2254,VALID,0,VALID,20.5804,VALID,141,VALID,0.545313,
2010-02-13, 01:02:04,VALID,918,VALID,0,VALID,94.0653,VALID,0,VALID,20.621,VALID,141,VALID,1.02188,
2010-02-13, 01:03:04,VALID,917.994,VALID,0,VALID,93.9129,VALID,0,VALID,20.639,VALID,141,VALID,0.923047,
2010-02-13, 01:04:04,VALID,918.003,VALID,0,VALID,93.9281,VALID,0,VALID,20.678,VALID,133,VALID,0.721484,
2010-02-13, 01:05:04,VALID,917.983,VALID,0,VALID,94.0806,VALID,0,VALID,20.678,VALID,133,VALID,1.21523,
2010-02-13, 01:06:04,VALID,917.965,VALID,0,VALID,94.0882,VALID,0,VALID,20.6975,VALID,133,VALID,1.29805,
2010-02-13, 01:07:04,VALID,917.982,VALID,0,VALID,93.8061,VALID,0,VALID,20.756,VALID,133,VALID,0.719141,
2010-02-13, 01:08:04,VALID,917.977,VALID,0,VALID,93.6308,VALID,0,VALID,20.717,VALID,133,VALID,0.85,
2010-02-13, 01:09:04,VALID,917.998,VALID,0,VALID,93.829,VALID,0,VALID,20.6975,VALID,133,VALID,0.558984,
2010-02-13, 01:10:04,VALID,917.979,VALID,0,VALID,94.0272,VALID,0,VALID,20.7381,VALID,133,VALID,1.01484,
2010-02-13, 01:11:04,VALID,917.948,VALID,0,VALID,93.9586,VALID,0,VALID,20.756,VALID,133,VALID,0.917969,
2010-02-13, 01:12:04,VALID,917.953,VALID,0,VALID,93.8214,VALID,0,VALID,20.7755,VALID,133,VALID,0.760547,
2010-02-13, 01:13:04,VALID,917.903,VALID,0,VALID,93.7451,VALID,0,VALID,20.795,VALID,133,VALID,0.991797,
2010-02-13, 01:14:04,VALID,917.863,VALID,0,VALID,93.5698,VALID,0,VALID,20.8535,VALID,133,VALID,0.869531,
2010-02-13, 01:15:04,VALID,917.834,VALID,0,VALID,93.4097,VALID,0,VALID,20.8746,VALID,133,VALID,0.767578,
2010-02-13, 01:16:04,VALID,917.807,VALID,0,VALID,93.425,VALID,0,VALID,20.8746,VALID,133,VALID,1.16758,
2010-02-13, 01:17:04,VALID,917.814,VALID,0,VALID,93.4402,VALID,0,VALID,20.8535,VALID,133,VALID,1.09961,
2010-02-13, 01:18:04,VALID,917.838,VALID,0,VALID,93.3945,VALID,0,VALID,20.8535,VALID,184,VALID,0.785547,
2010-02-13, 01:19:04,VALID,917.805,VALID,0,VALID,93.3564,VALID,0,VALID,20.9136,VALID,158,VALID,1.57539,
2010-02-13, 01:20:04,VALID,917.804,VALID,0,VALID,93.2039,VALID,0,VALID,20.9331,VALID,157,VALID,1.29023,
2010-02-13, 01:21:04,VALID,917.798,VALID,0,VALID,93.0819,VALID,0,VALID,20.9511,VALID,147,VALID,1.32773,
2010-02-13, 01:22:04,VALID,917.786,VALID,0,VALID,93.0819,VALID,0,VALID,20.9511,VALID,181,VALID,0.702344,
2010-02-13, 01:23:04,VALID,917.774,VALID,0,VALID,93.1353,VALID,0,VALID,20.9511,VALID,181,VALID,1.02852,
2010-02-13, 01:24:04,VALID,917.741,VALID,0,VALID,93.0514,VALID,0,VALID,20.9901,VALID,134,VALID,0.963672,
2010-02-13, 01:25:04,VALID,917.718,VALID,0,VALID,92.9447,VALID,0,VALID,20.9901,VALID,134,VALID,0.676562,
2010-02-13, 01:26:04,VALID,917.696,VALID,0,VALID,92.9981,VALID,0,VALID,20.9511,VALID,134,VALID,0.771094,
2010-02-13, 01:27:04,VALID,917.716,VALID,0,VALID,93.1658,VALID,0,VALID,20.9316,VALID,134,VALID,0.901172,
2010-02-13, 01:28:04,VALID,917.681,VALID,0,VALID,93.181,VALID,0,VALID,20.8925,VALID,137,VALID,1.67969,
2010-02-13, 01:29:04,VALID,917.727,VALID,0,VALID,93.1353,VALID,0,VALID,20.873,VALID,130,VALID,1.2293,
2010-02-13, 01:30:04,VALID,917.699,VALID,0,VALID,93.2801,VALID,0,VALID,20.8535,VALID,144,VALID,0.871875,
2010-02-13, 01:31:04,VALID,917.695,VALID,0,VALID,93.3716,VALID,0,VALID,20.873,VALID,117,VALID,0.994141,
2010-02-13, 01:32:04,VALID,917.692,VALID,0,VALID,93.4326,VALID,0,VALID,20.873,VALID,117,VALID,0.433594,
2010-02-13, 01:33:04,VALID,917.645,VALID,0,VALID,93.6537,VALID,0,VALID,20.873,VALID,164,VALID,1.21211,
2010-02-13, 01:34:04,VALID,917.657,VALID,0,VALID,93.7909,VALID,0,VALID,20.834,VALID,181,VALID,1.31523,
2010-02-13, 01:35:04,VALID,917.647,VALID,0,VALID,93.9434,VALID,0,VALID,20.8129,VALID,181,VALID,0.722656,
2010-02-13, 01:36:04,VALID,917.621,VALID,0,VALID,94.1111,VALID,0,VALID,20.795,VALID,181,VALID,1.38828,
2010-02-13, 01:37:04,VALID,917.597,VALID,0,VALID,94.2712,VALID,0,VALID,20.756,VALID,181,VALID,1.46563,
2010-02-13, 01:38:04,VALID,917.586,VALID,0,VALID,94.4465,VALID,0,VALID,20.6975,VALID,151,VALID,0.93125,
2010-02-13, 01:39:04,VALID,917.604,VALID,0,VALID,94.6218,VALID,0,VALID,20.6585,VALID,131,VALID,1.00352,
2010-02-13, 01:40:04,VALID,917.539,VALID,0,VALID,94.82,VALID,0,VALID,20.639,VALID,131,VALID,0.469141,
2010-02-13, 01:41:04,VALID,917.536,VALID,0,VALID,94.9954,VALID,0,VALID,20.6194,VALID,164,VALID,0.797656,
2010-02-13, 01:42:04,VALID,917.534,VALID,0,VALID,95.064,VALID,0,VALID,20.6405,VALID,164,VALID,0.392188,
2010-02-13, 01:43:04,VALID,917.547,VALID,0,VALID,95.1097,VALID,0,VALID,20.6194,VALID,164,VALID,0.778516,
2010-02-13, 01:44:04,VALID,917.503,VALID,0,VALID,95.1783,VALID,0,VALID,20.6194,VALID,164,VALID,0.789453,
2010-02-13, 01:45:04,VALID,917.498,VALID,0,VALID,95.1936,VALID,0,VALID,20.639,VALID,180,VALID,0.652344,
2010-02-13, 01:46:04,VALID,917.495,VALID,0,VALID,95.1936,VALID,0,VALID,20.6795,VALID,178,VALID,1.14141,
2010-02-13, 01:47:04,VALID,917.429,VALID,0,VALID,95.1402,VALID,0,VALID,20.6764,VALID,155,VALID,1.34219,
2010-02-13, 01:48:04,VALID,917.397,VALID,0,VALID,94.9649,VALID,0,VALID,20.7349,VALID,167,VALID,0.923047,
2010-02-13, 01:49:04,VALID,917.392,VALID,0,VALID,94.6828,VALID,0,VALID,20.7755,VALID,135,VALID,0.703125,
2010-02-13, 01:50:04,VALID,917.394,VALID,0,VALID,94.3017,VALID,0,VALID,20.8551,VALID,134,VALID,1.21914,
2010-02-13, 01:51:04,VALID,917.378,VALID,0,VALID,93.9815,VALID,0,VALID,20.912,VALID,135,VALID,1.37617,
2010-02-13, 01:52:04,VALID,917.355,VALID,0,VALID,93.7604,VALID,0,VALID,20.9511,VALID,134,VALID,1.00625,
2010-02-13, 01:53:04,VALID,917.35,VALID,0,VALID,93.5927,VALID,0,VALID,20.9901,VALID,116,VALID,0.834375,
2010-02-13, 01:54:04,VALID,917.349,VALID,0,VALID,93.5546,VALID,0,VALID,20.9901,VALID,160,VALID,1.07773,
2010-02-13, 01:55:04,VALID,917.357,VALID,0,VALID,93.5317,VALID,0,VALID,21.0096,VALID,160,VALID,0.972656,
2010-02-13, 01:56:04,VALID,917.326,VALID,0,VALID,93.5393,VALID,0,VALID,20.9901,VALID,119,VALID,0.956641,
2010-02-13, 01:57:04,VALID,917.346,VALID,0,VALID,93.5469,VALID,0,VALID,20.9901,VALID,160,VALID,1.45586,
2010-02-13, 01:58:04,VALID,917.297,VALID,0,VALID,93.4707,VALID,0,VALID,21.0096,VALID,160,VALID,1.29531,
2010-02-13, 01:59:04,VALID,917.302,VALID,0,VALID,93.4326,VALID,0,VALID,21.0291,VALID,138,VALID,1.37891,
2010-02-13, 02:00:04,VALID,917.256,VALID,0,VALID,93.3564,VALID,0,VALID,21.0291,VALID,130,VALID,1.11914,
2010-02-13, 02:01:04,VALID,917.294,VALID,0,VALID,93.4707,VALID,0,VALID,21.0096,VALID,132,VALID,1.58164,
2010-02-13, 02:02:04,VALID,917.276,VALID,0,VALID,93.5393,VALID,0,VALID,20.9901,VALID,127,VALID,1.3668,
2010-02-13, 02:03:04,VALID,917.253,VALID,0,VALID,93.6537,VALID,0,VALID,20.9495,VALID,132,VALID,1.31172,
2010-02-13, 02:04:04,VALID,917.262,VALID,0,VALID,93.6537,VALID,0,VALID,20.9706,VALID,132,VALID,0.718359,
2010-02-13, 02:05:04,VALID,917.254,VALID,0,VALID,93.6765,VALID,0.107441,VALID,20.9511,VALID,129,VALID,0.898828,
2010-02-13, 02:06:04,VALID,917.256,VALID,0,VALID,93.6003,VALID,0,VALID,20.912,VALID,131,VALID,1.52148,
2010-02-13, 02:07:04,VALID,917.225,VALID,0,VALID,93.4555,VALID,0,VALID,20.9316,VALID,155,VALID,1.51641,
2010-02-13, 02:08:04,VALID,917.224,VALID,0,VALID,93.3564,VALID,0,VALID,20.9706,VALID,151,VALID,1.175,
2010-02-13, 02:09:04,VALID,917.212,VALID,0,VALID,93.4173,VALID,0,VALID,20.9706,VALID,138,VALID,1.4332,
2010-02-13, 02:10:04,VALID,917.218,VALID,0,VALID,93.6155,VALID,0,VALID,20.9316,VALID,122,VALID,1.15352,
2010-02-13, 02:11:04,VALID,917.196,VALID,0,VALID,93.7147,VALID,0,VALID,20.9316,VALID,130,VALID,1.59219,
2010-02-13, 02:12:04,VALID,917.178,VALID,0,VALID,93.646,VALID,0,VALID,20.912,VALID,118,VALID,1.2168,
2010-02-13, 02:13:04,VALID,917.13,VALID,0,VALID,93.6232,VALID,0,VALID,20.9511,VALID,133,VALID,1.14414,
2010-02-13, 02:14:04,VALID,917.146,VALID,0,VALID,93.6842,VALID,0,VALID,20.9511,VALID,148,VALID,1.19492,
2010-02-13, 02:15:04,VALID,917.126,VALID,0,VALID,93.7528,VALID,0,VALID,20.912,VALID,152,VALID,1.10781,
2010-02-13, 02:16:04,VALID,917.107,VALID,0,VALID,93.7451,VALID,0,VALID,20.891,VALID,152,VALID,1.08828,
2010-02-13, 02:17:04,VALID,917.074,VALID,0,VALID,93.8138,VALID,0,VALID,20.8714,VALID,152,VALID,1.01914,
2010-02-13, 02:18:04,VALID,917.076,VALID,0,VALID,93.8519,VALID,0,VALID,20.8535,VALID,152,VALID,1.06328,
2010-02-13, 02:19:04,VALID,917.048,VALID,0,VALID,93.8366,VALID,0,VALID,20.8129,VALID,152,VALID,0.823828,
2010-02-13, 02:20:04,VALID,917.051,VALID,0,VALID,93.7833,VALID,0,VALID,20.8145,VALID,151,VALID,0.974609,
2010-02-13, 02:21:04,VALID,917.042,VALID,0,VALID,93.7833,VALID,0,VALID,20.8145,VALID,151,VALID,0.891406,
2010-02-13, 02:22:04,VALID,917.031,VALID,0,VALID,93.7451,VALID,0,VALID,20.7934,VALID,151,VALID,0.801562,
2010-02-13, 02:23:04,VALID,917.049,VALID,0,VALID,93.7909,VALID,0,VALID,20.795,VALID,151,VALID,0.858984,
2010-02-13, 02:24:04,VALID,917.003,VALID,0,VALID,93.7909,VALID,0.107441,VALID,20.7739,VALID,121,VALID,1.0332,
2010-02-13, 02:25:04,VALID,916.97,VALID,0,VALID,93.7147,VALID,0,VALID,20.8145,VALID,121,VALID,0.872266,
2010-02-13, 02:26:04,VALID,917.007,VALID,0,VALID,93.6003,VALID,0,VALID,20.7934,VALID,121,VALID,0.962891,
2010-02-13, 02:27:04,VALID,916.984,VALID,0,VALID,93.5012,VALID,0,VALID,20.834,VALID,121,VALID,0.726953,
2010-02-13, 02:28:04,VALID,916.976,VALID,0,VALID,93.4021,VALID,0,VALID,20.7934,VALID,121,VALID,0.540625,
2010-02-13, 02:29:04,VALID,916.998,VALID,0,VALID,93.5241,VALID,0.107441,VALID,20.8145,VALID,121,VALID,0.723437,
2010-02-13, 02:30:04,VALID,916.989,VALID,0,VALID,93.6613,VALID,0,VALID,20.7739,VALID,121,VALID,0.985156,
2010-02-13, 02:31:04,VALID,917.009,VALID,0,VALID,93.6918,VALID,0,VALID,20.795,VALID,189,VALID,0.848437,
2010-02-13, 02:32:04,VALID,917.036,VALID,0,VALID,93.5774,VALID,0,VALID,20.7739,VALID,87,VALID,0.726172,
2010-02-13, 02:33:04,VALID,917.023,VALID,0,VALID,93.364,VALID,0,VALID,20.834,VALID,143,VALID,1.72422,
2010-02-13, 02:34:04,VALID,917.011,VALID,0,VALID,93.242,VALID,0,VALID,20.873,VALID,140,VALID,0.932813,
2010-02-13, 02:35:04,VALID,916.965,VALID,0,VALID,93.1963,VALID,0,VALID,20.8535,VALID,140,VALID,0.676953,
2010-02-13, 02:36:04,VALID,916.961,VALID,0,VALID,93.2572,VALID,0,VALID,20.8535,VALID,140,VALID,0.655859,
2010-02-13, 02:37:04,VALID,916.927,VALID,0,VALID,93.2649,VALID,0,VALID,20.8324,VALID,140,VALID,0.280859,
2010-02-13, 02:38:04,VALID,916.909,VALID,0,VALID,93.364,VALID,0,VALID,20.8145,VALID,138,VALID,0.784766,
2010-02-13, 02:39:04,VALID,916.915,VALID,0,VALID,93.5546,VALID,0,VALID,20.7755,VALID,138,VALID,0.724609,
2010-02-13, 02:40:04,VALID,916.896,VALID,0,VALID,93.6689,VALID,0,VALID,20.795,VALID,138,VALID,1.01016,
2010-02-13, 02:41:04,VALID,916.924,VALID,0,VALID,93.6994,VALID,0,VALID,20.7739,VALID,138,VALID,0.712109,
2010-02-13, 02:42:04,VALID,916.941,VALID,0,VALID,93.5927,VALID,0,VALID,20.795,VALID,138,VALID,0.6875,
2010-02-13, 02:43:04,VALID,916.923,VALID,0,VALID,93.4936,VALID,0,VALID,20.756,VALID,138,VALID,1.02422,
2010-02-13, 02:44:04,VALID,916.913,VALID,0,VALID,93.5317,VALID,0,VALID,20.7544,VALID,138,VALID,0.644531,
2010-02-13, 02:45:04,VALID,916.9,VALID,0,VALID,93.1505,VALID,0.107441,VALID,20.7755,VALID,136,VALID,1.56992,
2010-02-13, 02:46:04,VALID,916.876,VALID,0,VALID,92.7084,VALID,0,VALID,20.873,VALID,151,VALID,1.57227,
2010-02-13, 02:47:04,VALID,916.874,VALID,0,VALID,92.3272,VALID,0,VALID,20.9105,VALID,127,VALID,2.1332,
2010-02-13, 02:48:04,VALID,916.864,VALID,0,VALID,92.0604,VALID,0,VALID,20.9706,VALID,138,VALID,1.96836,
2010-02-13, 02:49:04,VALID,916.844,VALID,0,VALID,91.7554,VALID,0,VALID,21.0096,VALID,139,VALID,0.667969,
2010-02-13, 02:50:04,VALID,916.847,VALID,0,VALID,91.7249,VALID,0,VALID,21.0291,VALID,144,VALID,2.08555,
2010-02-13, 02:51:04,VALID,916.832,VALID,0,VALID,91.7631,VALID,0,VALID,21.0096,VALID,135,VALID,2.07773,
2010-02-13, 02:52:04,VALID,916.791,VALID,0,VALID,91.8012,VALID,0,VALID,21.0096,VALID,130,VALID,1.525,
2010-02-13, 02:53:04,VALID,916.793,VALID,0,VALID,91.946,VALID,0.107441,VALID,21.0096,VALID,135,VALID,1.42344,
2010-02-13, 02:54:04,VALID,916.8,VALID,0,VALID,92.1061,VALID,0,VALID,20.9901,VALID,128,VALID,1.54492,
2010-02-13, 02:55:04,VALID,916.782,VALID,0,VALID,92.1519,VALID,0,VALID,20.9706,VALID,146,VALID,1.7918,
2010-02-13, 02:56:04,VALID,916.798,VALID,0,VALID,92.1519,VALID,0,VALID,20.9511,VALID,141,VALID,1.87148,
2010-02-13, 02:57:04,VALID,916.798,VALID,0,VALID,92.0832,VALID,0,VALID,20.9706,VALID,153,VALID,1.47891,
2010-02-13, 02:58:04,VALID,916.796,VALID,0,VALID,92.0223,VALID,0,VALID,20.9706,VALID,163,VALID,1.21328,
2010-02-13, 02:59:04,VALID,916.796,VALID,0,VALID,91.9231,VALID,0,VALID,20.9901,VALID,130,VALID,1.29414,
2010-02-13, 03:00:04,VALID,916.796,VALID,0,VALID,91.946,VALID,0,VALID,20.9495,VALID,121,VALID,1.32344,
2010-02-13, 03:01:04,VALID,916.811,VALID,0,VALID,92.0756,VALID,0,VALID,20.9901,VALID,165,VALID,0.772656,
2010-02-13, 03:02:04,VALID,916.804,VALID,0,VALID,92.3043,VALID,0.107441,VALID,20.9511,VALID,170,VALID,1.1832,
2010-02-13, 03:03:04,VALID,916.804,VALID,0,VALID,92.5102,VALID,0.107441,VALID,20.912,VALID,170,VALID,0.800781,
2010-02-13, 03:04:04,VALID,916.82,VALID,0,VALID,92.7846,VALID,0,VALID,20.873,VALID,171,VALID,1.2293,
2010-02-13, 03:05:04,VALID,916.829,VALID,0,VALID,93.0667,VALID,0,VALID,20.8746,VALID,154,VALID,1.72695,
2010-02-13, 03:06:04,VALID,916.848,VALID,0,VALID,93.2039,VALID,0.107441,VALID,20.8324,VALID,151,VALID,0.796875,
2010-02-13, 03:07:04,VALID,916.8,VALID,0,VALID,93.3182,VALID,0,VALID,20.834,VALID,164,VALID,1.01367,
2010-02-13, 03:08:04,VALID,916.843,VALID,0,VALID,93.3945,VALID,0,VALID,20.834,VALID,144,VALID,0.801562,
2010-02-13, 03:09:04,VALID,916.815,VALID,0,VALID,93.4555,VALID,0,VALID,20.8551,VALID,151,VALID,1.63164,
2010-02-13, 03:10:04,VALID,916.836,VALID,0,VALID,93.4859,VALID,0,VALID,20.7934,VALID,161,VALID,1.27539,
2010-02-13, 03:11:04,VALID,916.854,VALID,0,VALID,93.4097,VALID,0,VALID,20.8535,VALID,151,VALID,1.52773,
2010-02-13, 03:12:04,VALID,916.871,VALID,0,VALID,93.3106,VALID,0,VALID,20.873,VALID,164,VALID,1.02617,
2010-02-13, 03:13:04,VALID,916.858,VALID,0,VALID,93.1429,VALID,0,VALID,20.8925,VALID,159,VALID,1.37617,
2010-02-13, 03:14:04,VALID,916.859,VALID,0,VALID,92.8303,VALID,0,VALID,20.912,VALID,175,VALID,0.943359,
2010-02-13, 03:15:04,VALID,916.845,VALID,0,VALID,92.7389,VALID,0,VALID,20.9495,VALID,131,VALID,1.42734,
2010-02-13, 03:16:04,VALID,916.859,VALID,0,VALID,92.6169,VALID,0,VALID,21.0096,VALID,104,VALID,1.03555,
2010-02-13, 03:17:04,VALID,916.868,VALID,0,VALID,92.5864,VALID,0,VALID,21.0291,VALID,114,VALID,1.35273,
2010-02-13, 03:18:04,VALID,916.865,VALID,0,VALID,92.5635,VALID,0,VALID,21.0291,VALID,129,VALID,1.55664,
2010-02-13, 03:19:04,VALID,916.854,VALID,0,VALID,92.5178,VALID,0,VALID,21.008,VALID,137,VALID,1.32773,
2010-02-13, 03:20:04,VALID,916.841,VALID,0,VALID,92.4644,VALID,0.107441,VALID,21.0486,VALID,174,VALID,1.03203,
2010-02-13, 03:21:04,VALID,916.83,VALID,0,VALID,92.4187,VALID,0,VALID,21.047,VALID,174,VALID,1.03867,
2010-02-13, 03:22:04,VALID,916.877,VALID,0,VALID,92.3424,VALID,0,VALID,21.0486,VALID,144,VALID,1.60234,
2010-02-13, 03:23:04,VALID,916.846,VALID,0,VALID,92.2357,VALID,0,VALID,21.0665,VALID,144,VALID,1.68984,
2010-02-13, 03:24:04,VALID,916.891,VALID,0,VALID,92.1061,VALID,0,VALID,21.1266,VALID,161,VALID,1.56328,
2010-02-13, 03:25:04,VALID,916.876,VALID,0,VALID,91.9841,VALID,0,VALID,21.1266,VALID,108,VALID,1.2793,
2010-02-13, 03:26:04,VALID,916.906,VALID,0,VALID,91.9765,VALID,0,VALID,21.1461,VALID,125,VALID,1.46367,
2010-02-13, 03:27:04,VALID,916.883,VALID,0,VALID,91.9079,VALID,0,VALID,21.1657,VALID,127,VALID,1.50469,
2010-02-13, 03:28:04,VALID,916.855,VALID,0,VALID,91.9613,VALID,0,VALID,21.1461,VALID,131,VALID,1.375,
2010-02-13, 03:29:04,VALID,916.86,VALID,0,VALID,92.0527,VALID,0,VALID,21.125,VALID,134,VALID,1.4375,
2010-02-13, 03:30:04,VALID,916.856,VALID,0,VALID,92.0375,VALID,0,VALID,21.1071,VALID,131,VALID,1.78437,
2010-02-13, 03:31:04,VALID,916.837,VALID,0,VALID,91.9994,VALID,0,VALID,21.1055,VALID,124,VALID,1.80078,
2010-02-13, 03:32:04,VALID,916.811,VALID,0,VALID,92.0527,VALID,0,VALID,21.1266,VALID,134,VALID,1.74063,
2010-02-13, 03:33:04,VALID,916.773,VALID,0,VALID,92.129,VALID,0,VALID,21.1071,VALID,137,VALID,1.59453,
2010-02-13, 03:34:04,VALID,916.758,VALID,0,VALID,92.2281,VALID,0,VALID,21.0876,VALID,147,VALID,1.32031,
2010-02-13, 03:35:04,VALID,916.748,VALID,0,VALID,92.3119,VALID,0,VALID,21.0681,VALID,131,VALID,1.50391,
2010-02-13, 03:36:04,VALID,916.742,VALID,0,VALID,92.3501,VALID,0,VALID,21.0681,VALID,153,VALID,1.53125,
2010-02-13, 03:37:04,VALID,916.748,VALID,0,VALID,92.3272,VALID,0,VALID,21.0275,VALID,138,VALID,1.10273,
2010-02-13, 03:38:04,VALID,916.744,VALID,0,VALID,92.3424,VALID,0,VALID,21.0291,VALID,105,VALID,1.22422,
2010-02-13, 03:39:04,VALID,916.775,VALID,0,VALID,92.3577,VALID,0,VALID,21.0486,VALID,116,VALID,1.32578,
2010-02-13, 03:40:04,VALID,916.779,VALID,0,VALID,92.4187,VALID,0,VALID,21.0291,VALID,135,VALID,1.78711,
2010-02-13, 03:41:04,VALID,916.746,VALID,0,VALID,92.4263,VALID,0,VALID,21.0291,VALID,139,VALID,1.33008,
2010-02-13, 03:42:04,VALID,916.739,VALID,0,VALID,92.4034,VALID,0,VALID,21.0291,VALID,166,VALID,0.880469,
2010-02-13, 03:43:04,VALID,916.684,VALID,0,VALID,92.411,VALID,0,VALID,21.0291,VALID,160,VALID,0.789844,
2010-02-13, 03:44:04,VALID,916.696,VALID,0,VALID,92.5178,VALID,0,VALID,21.0291,VALID,160,VALID,1.24922,
2010-02-13, 03:45:04,VALID,916.694,VALID,0,VALID,92.4644,VALID,0,VALID,21.008,VALID,155,VALID,1.61797,